[[{"header":{"parameterUnit":"m.s-1","parameterCategory":1,"la1":30.2991,"la2":30.254,"lo1":-89.0895,"lo2":-89.0444,"dy":0.0017,"dx":0.0017,"nx":28,"ny":28,"refTime":"2024-06-08T21:00:00:Z","depth":0,"parameterNumber":2,"parameterNumberName":"U-component_of_WINDS"},"data":[0,0,0,0,0,0,0,0,0,0,0,0,0,0,0,0,0,0,0,0,0,0,0,0,0,0,0,0,0,0,0,0,0,0,0,0,0,0,0,0,0,0,0,0,0,0,0,0,0,0,0,0,0,0,0,0,0,0,1.049,1.0491,0,1.0585,1.0586,1.0587,1.0619,1.0618,1.0618,1.0617,1.0717,1.072,1.0723,0,0,0,0,0,0,0,0,0,0,0,0,0,1.0339,1.0341,1.049,1.0492,1.0493,1.0585,1.0586,1.0588,1.0619,1.0618,1.0618,1.0617,1.0716,1.072,1.0724,0,0,0,0,0,0,0,0,0,0,0,0,0,1.0416,1.0342,1.049,1.0519,1.0523,1.0585,1.0586,1.0588,1.0619,1.0618,1.0618,1.0617,1.0715,1.072,1.0724,1.0765,0,0,1.0738,1.074,0,0,0,0,0,0,0,0,1.0412,1.0422,1.0514,1.0517,1.0522,1.0589,1.057,1.0647,1.0619,1.0583,1.0617,1.0617,1.0676,1.0683,1.0703,1.0769,1.0774,1.0738,1.0741,1.0743,1.0745,0,0,0,0,0,0,0,1.0406,1.0418,1.0528,1.0515,1.052,1.0528,1.0539,1.0584,1.0631,1.0586,1.0588,1.0599,1.0678,1.0698,1.0705,1.0775,1.0738,1.0742,1.0745,1.0747,1.088,1.0881,0,0,0,0,0,0,1.0396,1.0413,1.0525,1.0531,1.0464,1.0532,1.0543,1.0568,1.0631,1.064,1.0599,1.06,1.0691,1.07,1.0709,1.0761,1.0743,1.0747,1.075,1.0879,1.088,1.0881,0,0,0,0,0,0,1.0392,1.0405,1.0521,1.0473,1.0488,1.0535,1.0563,1.0571,1.0591,1.0641,1.065,1.0611,1.069,1.0702,1.075,1.0764,1.075,1.0754,1.0878,1.088,1.0881,1.0864,0,0,0,0,0,0,1.0388,1.0404,1.0419,1.0473,1.0491,1.056,1.0564,1.0573,1.0599,1.06,1.0655,1.0664,1.0691,1.0743,1.0755,1.077,1.0757,1.0877,1.0879,1.088,1.0864,1.0865,1.0865,0,0,0,0,0,1.0382,1.0412,1.042,1.0433,1.0511,1.0561,1.0572,1.0602,1.0599,1.0616,1.0648,1.0662,1.0761,1.0748,1.0761,1.0778,1.0877,1.0879,1.088,1.0863,1.0864,1.0865,0,0,0,0,0,0,1.036,1.0419,1.0429,1.0476,1.0513,1.0566,1.0588,1.0602,1.0641,1.0641,1.0678,1.069,1.0735,1.0762,1.0746,1.0821,1.0819,1.0824,1.0802,1.0804,1.0804,1.0797,1.0761,0,0,0,0,0,1.036,1.0395,1.0446,1.0483,1.05,1.0541,1.0564,1.0584,1.0624,1.064,1.0676,1.0715,1.0755,1.0781,1.082,1.0867,1.088,1.0886,1.0886,1.0887,1.0891,1.0918,1.0921,1.0887,1.0887,1.0887,0,0,1.0362,1.0398,1.0419,1.0479,1.051,1.0546,1.0554,1.0592,1.062,1.0646,1.0694,1.0721,1.0767,1.0815,1.0838,1.0838,1.0903,1.0889,1.0889,1.0893,1.092,1.0923,1.0926,1.0888,1.0888,1.0888,0,0,1.0383,1.0414,1.0448,1.0479,1.0525,1.0552,1.056,1.0611,1.0629,1.0677,1.0698,1.0731,1.0799,1.0831,1.0857,1.0889,1.0903,1.0901,1.0906,1.0932,1.0934,1.0937,1.0949,1.0952,1.0904,1.0904,1.0904,0,1.0379,1.0434,1.0464,1.0501,1.0527,1.0552,1.0587,1.0615,1.0673,1.069,1.069,1.0775,1.0808,1.0864,1.0871,1.0891,1.0902,1.0895,1.0931,1.0934,1.0937,1.0949,1.0953,1.0904,1.0904,1.0904,1.0904,0,1.0428,1.0465,1.0487,1.0541,1.0569,1.0605,1.0641,1.0667,1.0684,1.071,1.0759,1.0799,1.0847,1.0861,1.0879,1.0919,1.0918,1.0924,1.0923,1.0939,1.0951,1.0955,1.0903,1.0903,1.0903,1.0903,0,0,1.0439,1.0507,1.0515,1.0539,1.0592,1.0622,1.0659,1.0705,1.0726,1.0765,1.0797,1.0853,1.0859,1.0887,1.0909,1.0931,1.0954,1.0934,1.0936,1.0937,1.1002,1.0997,1.1002,1.0964,1.0965,1.0966,1.0998,0,1.0467,1.0533,1.0561,1.0615,1.065,1.0673,1.0706,1.0742,1.0767,1.0802,1.0831,1.087,1.0874,1.0892,1.0915,1.0947,1.0968,1.0945,1.0995,1.0996,1.0983,1.1008,1.1003,1.1032,1.1002,1.1003,1.1004,0,1.0509,1.0547,1.0604,1.0652,1.0668,1.0696,1.074,1.0772,1.0814,1.0831,1.0862,1.0882,1.0922,1.0918,1.0974,1.0958,1.098,1.0998,1.1,1.1007,1.1001,1.1015,1.1042,1.1046,1.1011,1.1011,1.101,0,1.0512,1.0577,1.0619,1.0639,1.0696,1.0716,1.074,1.0781,1.0806,1.0845,1.0862,1.0905,1.0929,1.0962,1.0993,1.0987,1.1047,1.1045,1.1063,1.1062,1.1075,1.1074,1.1106,1.1088,1.1088,1.1088,1.1088,0,1.0541,1.0575,1.0621,1.0647,1.0686,1.0718,1.0756,1.0782,1.0818,1.085,1.0873,1.0903,1.0941,1.0976,1.1001,1.1044,1.1055,1.107,1.1076,1.1068,1.1066,1.1084,1.1083,1.1089,1.1089,1.1089,1.1088,0,1.0551,1.0583,1.0631,1.068,1.0693,1.072,1.0762,1.0789,1.0815,1.0855,1.0867,1.0908,1.0951,1.0984,1.104,1.1057,1.1102,1.1109,1.1087,1.1091,1.1106,1.1104,1.1151,1.1159,1.1135,1.1136,1.1136,0,1.0568,1.0594,1.0646,1.0669,1.0693,1.0729,1.0755,1.0787,1.0813,1.0862,1.0883,1.0926,1.0963,1.1029,1.1065,1.1107,1.1116,1.1129,1.1122,1.1113,1.1116,1.1115,1.1117,1.113,1.113,1.113,1.113,0,1.0595,1.0609,1.0645,1.0686,1.0716,1.075,1.0785,1.0803,1.0841,1.087,1.0912,1.0941,1.0997,1.104,1.1086,1.1112,1.1128,1.1132,1.1138,1.1131,1.1117,1.1125,1.109,1.1131,1.1131,1.1131,1.1131,1.1131,1.0609,1.0633,1.0673,1.0713,1.0742,1.0774,1.0801,1.083,1.0866,1.0914,1.093,1.0974,1.1015,1.1078,1.1104,1.114,1.1141,1.115,1.1153,1.1155,1.1154,1.1111,1.1148,1.1148,1.1148,1.1148,1.1148,0,1.0637,1.0663,1.0699,1.0747,1.0778,1.0788,1.0827,1.0853,1.0891,1.0927,1.0962,1.1011,1.1053,1.1091,1.1135,1.1156,1.1164,1.1166,1.1165,1.1171,1.115,1.114,1.1158,1.1158,1.1158,1.1158,1.1158,1.1158,1.0655,1.0697,1.0716,1.0773,1.08,1.0842,1.0863,1.0893,1.0922,1.0975,1.101,1.1034,1.1071,1.1117,1.1156,1.1166,1.1182,1.1182,1.1194,1.1174,1.1172,1.1171,1.1162,1.1185,1.1185,1.1212,1.1212,1.1213]},{"header":{"parameterUnit":"m.s-1","parameterCategory":1,"la1":30.2991,"la2":30.254,"lo1":-89.0895,"lo2":-89.0444,"dy":0.0017,"dx":0.0017,"nx":28,"ny":28,"refTime":"2024-06-08T21:00:00:Z","depth":0,"parameterNumber":3,"parameterNumberName":"V-component_of_WINDS"},"data":[0,0,0,0,0,0,0,0,0,0,0,0,0,0,0,0,0,0,0,0,0,0,0,0,0,0,0,0,0,0,0,0,0,0,0,0,0,0,0,0,0,0,0,0,0,0,0,0,0,0,0,0,0,0,0,0,0,0,1.7496,1.7497,0,1.7548,1.7548,1.7549,1.762,1.7621,1.7622,1.7623,1.7673,1.7673,1.7673,0,0,0,0,0,0,0,0,0,0,0,0,0,1.7454,1.7454,1.7496,1.7497,1.7497,1.7548,1.7548,1.7549,1.762,1.7621,1.7623,1.7624,1.7672,1.7673,1.7673,0,0,0,0,0,0,0,0,0,0,0,0,0,1.7485,1.7454,1.7496,1.7539,1.7543,1.7547,1.7548,1.7549,1.7619,1.7621,1.7623,1.7625,1.7672,1.7673,1.7673,1.7638,0,0,1.7674,1.7674,0,0,0,0,0,0,0,0,1.7483,1.7487,1.7532,1.7536,1.7541,1.7579,1.7552,1.7579,1.7619,1.759,1.7623,1.7626,1.764,1.7643,1.7649,1.7641,1.7643,1.7674,1.7674,1.7674,1.7674,0,0,0,0,0,0,0,1.7481,1.7485,1.7516,1.7532,1.7538,1.7554,1.756,1.7557,1.7604,1.7593,1.7598,1.7604,1.7643,1.7648,1.765,1.7644,1.7674,1.7674,1.7674,1.7674,1.7608,1.7606,0,0,0,0,0,0,1.7473,1.7483,1.7515,1.7518,1.7516,1.7553,1.756,1.7565,1.7604,1.7612,1.7602,1.7607,1.7647,1.765,1.7652,1.7613,1.7674,1.7674,1.7675,1.761,1.7608,1.7605,0,0,0,0,0,0,1.7472,1.7475,1.7513,1.7502,1.7508,1.7552,1.7556,1.7565,1.7571,1.7611,1.762,1.7599,1.7648,1.7652,1.7641,1.7615,1.7674,1.7675,1.7612,1.7609,1.7606,1.7534,0,0,0,0,0,0,1.7471,1.7475,1.7463,1.7501,1.7508,1.7502,1.7555,1.7565,1.7571,1.7578,1.7611,1.7618,1.765,1.764,1.7641,1.7617,1.7675,1.7615,1.7611,1.7607,1.7539,1.7529,1.7521,0,0,0,0,0,1.7469,1.744,1.7462,1.7465,1.7495,1.75,1.7504,1.7542,1.7569,1.7557,1.7583,1.7617,1.7618,1.7639,1.764,1.7616,1.7616,1.7612,1.7608,1.7543,1.7531,1.7521,0,0,0,0,0,0,1.7397,1.7446,1.7471,1.7454,1.7472,1.7512,1.7498,1.7529,1.7539,1.7545,1.7591,1.7598,1.7581,1.7598,1.7619,1.7583,1.7622,1.7618,1.7573,1.7562,1.7553,1.7548,1.7675,0,0,0,0,0,1.7379,1.7381,1.7423,1.7404,1.7412,1.7453,1.7457,1.7485,1.7506,1.7514,1.7539,1.7556,1.7561,1.7562,1.7569,1.7542,1.7549,1.7526,1.7517,1.7509,1.7504,1.7489,1.7479,1.7591,1.7591,1.7591,0,0,1.7342,1.7369,1.7367,1.739,1.7408,1.7407,1.7459,1.7457,1.7456,1.7513,1.7504,1.7523,1.7546,1.7526,1.7519,1.754,1.7475,1.7504,1.7497,1.7497,1.7484,1.7473,1.7463,1.7588,1.7589,1.7589,0,0,1.7274,1.7296,1.7281,1.7298,1.7325,1.7352,1.7348,1.7383,1.7398,1.7391,1.7433,1.7432,1.7439,1.7453,1.7461,1.7397,1.7428,1.7398,1.7349,1.7334,1.7325,1.7317,1.7292,1.7283,1.7393,1.7393,1.7393,0,1.7224,1.7226,1.727,1.7264,1.7272,1.7325,1.7309,1.7323,1.7349,1.7353,1.7376,1.7385,1.7404,1.7388,1.7372,1.7377,1.7373,1.7393,1.7323,1.7316,1.7309,1.7286,1.7277,1.7389,1.7389,1.739,1.739,0,1.7162,1.7163,1.7148,1.7173,1.7179,1.7168,1.7209,1.721,1.7237,1.7261,1.7252,1.7277,1.7288,1.7287,1.7313,1.7273,1.7285,1.7315,1.7355,1.7294,1.7272,1.7264,1.7383,1.7385,1.7386,1.7387,0,0,1.705,1.7099,1.7092,1.7103,1.7136,1.7137,1.7128,1.714,1.7139,1.7155,1.7147,1.7152,1.7179,1.7188,1.7217,1.7204,1.7149,1.7235,1.7236,1.7216,1.7103,1.7079,1.7068,1.717,1.7169,1.7168,1.7101,0,1.6986,1.6974,1.7013,1.6991,1.699,1.704,1.7032,1.705,1.7073,1.7074,1.7099,1.71,1.7138,1.7143,1.7133,1.7157,1.7126,1.7163,1.7161,1.716,1.7151,1.7057,1.7032,1.6968,1.7093,1.7092,1.7091,0,1.691,1.6923,1.6901,1.6934,1.6935,1.6927,1.694,1.6942,1.6963,1.698,1.6989,1.7023,1.7014,1.7054,1.7042,1.7066,1.7067,1.7079,1.7078,1.7077,1.712,1.7052,1.6948,1.6938,1.7078,1.7079,1.708,0,1.6827,1.6839,1.6827,1.6835,1.6874,1.6866,1.6882,1.6905,1.6909,1.6921,1.6924,1.6934,1.6938,1.6945,1.6979,1.7005,1.6961,1.7005,1.6973,1.6972,1.696,1.696,1.6853,1.6965,1.6965,1.6965,1.6965,0,1.6751,1.6734,1.679,1.6782,1.6765,1.6809,1.679,1.681,1.683,1.6826,1.687,1.6865,1.6912,1.6911,1.6938,1.6922,1.6924,1.6936,1.6943,1.6931,1.6929,1.6931,1.6935,1.6963,1.6963,1.6964,1.6964,0,1.6654,1.6691,1.6681,1.6718,1.6727,1.6712,1.6744,1.6737,1.6762,1.6756,1.6757,1.6796,1.6798,1.6833,1.6842,1.686,1.6832,1.6848,1.6825,1.6829,1.6795,1.6797,1.6684,1.667,1.6792,1.6791,1.679,0,1.6602,1.6591,1.6627,1.6628,1.6641,1.6642,1.6647,1.669,1.6692,1.6715,1.6705,1.671,1.6716,1.6716,1.6744,1.675,1.6766,1.6726,1.6767,1.6754,1.6762,1.6761,1.6759,1.6716,1.6714,1.6713,1.6712,0,1.6505,1.6523,1.6529,1.6541,1.6545,1.6556,1.657,1.6567,1.6614,1.6615,1.6617,1.6622,1.6631,1.6635,1.6646,1.6661,1.6693,1.6699,1.6692,1.6678,1.6664,1.6669,1.6799,1.6701,1.6702,1.6703,1.6704,1.6704,1.6427,1.6419,1.6443,1.6447,1.6462,1.6473,1.6468,1.6493,1.6497,1.6508,1.6533,1.653,1.655,1.6569,1.6581,1.6578,1.6598,1.6588,1.6585,1.6582,1.6574,1.6666,1.6581,1.6581,1.6582,1.6582,1.6582,0,1.633,1.6348,1.6352,1.6369,1.6372,1.6405,1.6421,1.6421,1.6419,1.6435,1.6441,1.6442,1.6446,1.6474,1.6481,1.6473,1.6488,1.6473,1.6473,1.6475,1.6557,1.6562,1.6461,1.6461,1.6461,1.6461,1.6461,1.6461,1.628,1.6266,1.6288,1.6281,1.6299,1.6298,1.6305,1.6315,1.6328,1.6328,1.6331,1.6351,1.6371,1.6379,1.6383,1.6392,1.6391,1.637,1.6383,1.6458,1.647,1.6481,1.6485,1.637,1.637,1.6301,1.6301,1.63]}]]